Brookhaven, MS

10:41 PM CDT on April 30, 2017 (GMT -0500)
Brookhaven

Weather History for K1R7 - June, 2012

Change the Weather History Date:

Thursday, June 14, 2012

  Actual Average (KMCB) Record (KMCB)
Temperature  
Mean Temperature 78 °F -  
Max Temperature 87 °F 90 °F 102 °F (1963)
Min Temperature 68 °F 66 °F 57 °F (1979)
Cooling Degree Days 12    
Growing Degree Days 28 (Base 50)    
Moisture  
Dew Point 69 °F    
Average Humidity 80    
Maximum Humidity 100    
Minimum Humidity 51    
Precipitation  
Precipitation 0.00 in - - ()
Sea Level Pressure  
Sea Level Pressure 30.01 in    
Wind  
Wind Speed 1 mph (West)    
Max Wind Speed 12 mph    
Max Gust Speed 21 mph    
Visibility 8 miles    
Events Rain , Thunderstorm    
Averages and records for this station are not official NWS values.
T = Trace of Precipitation, MM = Missing Value Source: NWS Daily Summary

Daily Weather History Graph

Daily Weather History Graph

Search for Another Location

Airport or City:

Trip Planner

Search our weather history database for the weather conditions in past years. The results will help you decide how hot, cold, wet, or windy it might be!

Date:

Astronomy

Jun. 14, 2012 Rise Set
Actual Time 5:56 AM CDT 8:08 PM CDT
Civil Twilight 5:28 AM CDT 8:36 PM CDT
Nautical Twilight 4:53 AM CDT 9:10 PM CDT
Astronomical Twilight 4:16 AM CDT 9:47 PM CDT
Moon 2:27 AM CDT (6/14) 4:01 PM CDT (6/14)
Length of Visible Light 15h 08m
Length of Day
14h 11m
Waning Crescent, 21% of the Moon is Illuminated
Jun 14
Waning Crescent
Jun 19
New
Jun 26
First Quarter
Jul 3
Full
Jul 10
Last Quarter

Hourly Weather History & Observations

Time (CDT) Temp. Heat Index Dew Point Humidity Pressure Visibility Wind Dir Wind Speed Gust Speed Precip Events Conditions
12:15 AM 69.8 °F - 69.8 °F 100% 30.01 in 4.0 mi Calm Calm - N/A   Clear
12:35 AM 69.8 °F - 69.8 °F 100% 30.00 in 3.0 mi Calm Calm - N/A   Clear
12:55 AM 69.8 °F - 69.8 °F 100% 30.00 in 4.0 mi Calm Calm - N/A   Clear
1:15 AM 69.8 °F - 69.8 °F 100% 30.00 in 3.0 mi Calm Calm - N/A   Clear
1:35 AM 69.8 °F - 69.8 °F 100% 30.00 in 3.0 mi Calm Calm - N/A   Clear
1:55 AM 69.8 °F - 69.8 °F 100% 29.99 in 3.0 mi Calm Calm - N/A   Clear
2:15 AM 69.8 °F - 68.0 °F 94% 29.99 in 3.0 mi Calm Calm - N/A   Clear
2:35 AM 69.8 °F - 68.0 °F 94% 29.98 in 3.0 mi Calm Calm - N/A   Clear
2:55 AM 69.8 °F - 68.0 °F 94% 29.97 in 3.0 mi Calm Calm - N/A   Clear
3:35 AM 68.0 °F - 68.0 °F 100% 29.97 in 2.5 mi Calm Calm - N/A   Clear
3:55 AM 69.8 °F - 68.0 °F 94% 29.97 in 5.0 mi Calm Calm - N/A   Partly Cloudy
4:15 AM 69.8 °F - 68.0 °F 94% 29.98 in 7.0 mi Calm Calm - N/A   Scattered Clouds
4:55 AM 69.8 °F - 68.0 °F 94% 29.98 in 5.0 mi Calm Calm - N/A   Scattered Clouds
5:15 AM 69.8 °F - 68.0 °F 94% 29.99 in 5.0 mi Calm Calm - N/A   Partly Cloudy
5:35 AM 68.0 °F - 68.0 °F 100% 29.99 in 5.0 mi Calm Calm - N/A   Partly Cloudy
5:55 AM 68.0 °F - 68.0 °F 100% 30.00 in 3.0 mi Calm Calm - N/A   Partly Cloudy
6:15 AM 68.0 °F - 68.0 °F 100% 30.01 in 2.0 mi Calm Calm - N/A   Scattered Clouds
6:35 AM 69.8 °F - 69.8 °F 100% 30.02 in 4.0 mi Calm Calm - N/A Rain Light Rain
6:55 AM 71.6 °F - 69.8 °F 94% 30.03 in 5.0 mi Calm Calm - N/A   Partly Cloudy
7:15 AM 71.6 °F - 69.8 °F 94% 30.03 in 7.0 mi Calm Calm - N/A   Clear
7:35 AM 73.4 °F - 69.8 °F 88% 30.03 in 7.0 mi Calm Calm - N/A   Clear
7:55 AM 75.2 °F - 69.8 °F 83% 30.03 in 8.0 mi Calm Calm - N/A   Clear
8:15 AM 75.2 °F - 69.8 °F 83% 30.03 in 9.0 mi Calm Calm - N/A   Clear
8:35 AM 75.2 °F - 69.8 °F 83% 30.04 in 8.0 mi Calm Calm - N/A   Partly Cloudy
8:55 AM 75.2 °F - 69.8 °F 83% 30.04 in 9.0 mi Calm Calm - N/A   Clear
9:15 AM 75.2 °F - 69.8 °F 83% 30.04 in 9.0 mi Calm Calm - N/A   Clear
9:35 AM 77.0 °F - 69.8 °F 78% 30.04 in 9.0 mi Calm Calm - N/A   Clear
9:55 AM 78.8 °F - 68.0 °F 69% 30.03 in 9.0 mi Calm Calm - N/A   Clear
10:15 AM 78.8 °F - 69.8 °F 74% 30.03 in 9.0 mi Calm Calm - N/A   Clear
10:35 AM 78.8 °F - 69.8 °F 74% 30.03 in 9.0 mi Calm Calm - N/A   Clear
10:55 AM 78.8 °F - 69.8 °F 74% 30.03 in 9.0 mi NNW 6.9 mph - N/A   Clear
11:15 AM 78.8 °F - 69.8 °F 74% 30.05 in 10.0 mi SSE 4.6 mph - N/A   Clear
11:35 AM 80.6 °F 84.6 °F 71.6 °F 74% 30.05 in 10.0 mi Calm Calm - N/A   Clear
11:55 AM 78.8 °F - 71.6 °F 78% 30.06 in 9.0 mi Calm Calm - N/A   Light Drizzle
12:15 PM 80.6 °F 83.9 °F 69.8 °F 70% 30.06 in 8.0 mi Calm Calm - N/A   Clear
12:35 PM 80.6 °F 83.9 °F 69.8 °F 70% 30.06 in 9.0 mi Calm Calm - N/A   Clear
12:55 PM 80.6 °F 83.9 °F 69.8 °F 70% 30.06 in 9.0 mi Calm Calm - N/A   Clear
1:15 PM 82.4 °F 86.3 °F 69.8 °F 66% 30.05 in 9.0 mi Calm Calm - N/A   Partly Cloudy
1:35 PM 82.4 °F 86.3 °F 69.8 °F 66% 30.04 in 10.0 mi Calm Calm - N/A   Clear
1:55 PM 84.2 °F 88.4 °F 69.8 °F 62% 30.03 in 10.0 mi North 3.5 mph - N/A   Clear
2:15 PM 84.2 °F 88.4 °F 69.8 °F 62% 30.02 in 9.0 mi NNE 3.5 mph - N/A   Clear
2:35 PM 84.2 °F 87.3 °F 68.0 °F 58% 30.01 in 9.0 mi Calm Calm - N/A   Clear
2:55 PM 84.2 °F 87.3 °F 68.0 °F 58% 30.00 in 10.0 mi ENE 3.5 mph - N/A   Clear
3:15 PM 84.2 °F 88.4 °F 69.8 °F 62% 30.00 in 9.0 mi NE 4.6 mph - N/A   Clear
3:35 PM 86.0 °F 89.4 °F 68.0 °F 55% 29.99 in 9.0 mi Calm Calm - N/A   Clear
3:55 PM 87.8 °F 92.6 °F 69.8 °F 55% 29.99 in 10.0 mi Calm Calm - N/A   Clear
4:15 PM 86.0 °F 90.4 °F 69.8 °F 58% 29.99 in 10.0 mi NNE 3.5 mph - N/A   Clear
4:35 PM 86.0 °F 90.4 °F 69.8 °F 58% 29.98 in 10.0 mi NE 3.5 mph - N/A   Clear
4:55 PM 87.8 °F 92.6 °F 69.8 °F 55% 29.98 in 10.0 mi East 3.5 mph - N/A   Clear
5:15 PM 86.0 °F 89.4 °F 68.0 °F 55% 29.98 in 10.0 mi Calm Calm - N/A   Clear
5:35 PM 86.0 °F 88.2 °F 66.2 °F 51% 29.99 in 10.0 mi Calm Calm - N/A   Clear
5:55 PM 86.0 °F 88.2 °F 66.2 °F 51% 30.00 in 10.0 mi Calm Calm - N/A   Clear
6:15 PM 82.4 °F 85.4 °F 68.0 °F 62% 30.01 in 10.0 mi Calm Calm - N/A   Clear
6:35 PM 80.6 °F 84.6 °F 71.6 °F 74% 30.01 in 10.0 mi Calm Calm - N/A Thunderstorm Clear
6:55 PM 77.0 °F - 69.8 °F 78% 30.03 in 9.0 mi SSW 10.4 mph 19.6 mph N/A Thunderstorm Scattered Clouds
7:15 PM 75.2 °F - 66.2 °F 73% 30.04 in 10.0 mi SW 11.5 mph 20.7 mph N/A Thunderstorm Partly Cloudy
7:35 PM 75.2 °F - 66.2 °F 73% 30.04 in 10.0 mi SSW 6.9 mph - N/A   Clear
7:55 PM 73.4 °F - 66.2 °F 78% 30.04 in 10.0 mi SW 9.2 mph - N/A   Clear
8:15 PM 73.4 °F - 66.2 °F 78% 30.04 in 10.0 mi SSW 5.8 mph - N/A   Clear
8:35 PM 73.4 °F - 66.2 °F 78% 30.02 in 10.0 mi SW 3.5 mph - N/A   Clear
8:55 PM 73.4 °F - 66.2 °F 78% 30.01 in 10.0 mi West 5.8 mph - N/A   Clear
9:15 PM 71.6 °F - 66.2 °F 83% 30.00 in 10.0 mi West 5.8 mph - N/A   Clear
9:35 PM 71.6 °F - 66.2 °F 83% 30.01 in 10.0 mi Calm Calm - N/A   Clear
9:55 PM 71.6 °F - 66.2 °F 83% 30.01 in 10.0 mi West 3.5 mph - N/A   Clear
10:15 PM 69.8 °F - 66.2 °F 88% 30.01 in 10.0 mi Calm Calm - N/A   Clear
10:35 PM 69.8 °F - 66.2 °F 88% 30.01 in 10.0 mi Calm Calm - N/A   Clear
10:55 PM 69.8 °F - 66.2 °F 88% 30.02 in 10.0 mi Calm Calm - N/A   Clear
11:35 PM 68.0 °F - 66.2 °F 94% 30.03 in 10.0 mi Calm Calm - N/A   Clear
11:55 PM 68.0 °F - 66.2 °F 94% 30.03 in 10.0 mi Calm Calm - N/A   Clear